Simultaneous Nadir Overpasses (SNOs) Predictions

Prediction of SNOs between AQUA and METOP-B Satellite Orbit:

Table of predicted SNOs for the next 14.0 days since TLE Epoch: 7/6/2024
Index Date (AQUA) Time (AQUA) Lat,Lon (AQUA) SZA (AQUA ) Date (METOP-B) Time (METOP-B) Lat,Lon (METOP-B) SZA (METOP-B ) Distance(km) Time Diff (sec)
1 07/07/2024 10:20:24 -75.89,-157.52 126.66 07/07/2024 10:19:18 -75.88,-157.64 126.66 3.42 66
2 07/07/2024 11:09:48 75.97, 9.90 53.43 07/07/2024 11:09:56 75.97, 9.99 53.43 2.44 8
3 07/07/2024 11:59:21 -76.54, 175.69 125.96 07/07/2024 12:00:25 -76.56, 179.37 126.01 95.17 64
4 07/10/2024 01:41:21 75.91, 152.24 53.68 07/10/2024 01:40:22 75.90, 152.14 53.68 2.63 59
5 07/10/2024 02:30:44 -75.99, -40.37 126.23 07/10/2024 02:31:02 -75.99, -40.24 126.24 3.43 18
6 07/12/2024 17:02:16 -75.94, 101.96 125.93 07/12/2024 17:01:28 -75.92, 101.90 125.95 2.95 48
7 07/12/2024 17:51:39 75.98, -90.51 54.12 07/12/2024 17:52:06 76.00, -90.50 54.14 2.40 27
8 07/15/2024 08:23:10 75.94, 51.78 54.48 07/15/2024 08:22:31 75.96, 51.75 54.51 2.47 39
9 07/15/2024 09:12:33 -76.02,-140.79 125.44 07/15/2024 09:13:12 -76.01,-140.77 125.45 1.09 39
10 07/17/2024 23:44:02 -75.98, 1.48 125.03 07/17/2024 23:43:36 -75.96, 1.46 125.05 2.46 26



Historial Predications of SNOs between AQUA and METOP-B
